[[{"header":{"parameterUnit":"m.s-1","parameterCategory":1,"la1":30.2991,"la2":30.254,"lo1":-89.0895,"lo2":-89.0444,"dy":0.0017,"dx":0.0017,"nx":28,"ny":28,"refTime":"2025-09-15T09:00:00:Z","depth":0,"parameterNumber":2,"parameterNumberName":"U-component_of_WINDS"},"data":[0,0,0,0,0,0,0,0,0,0,0,0,0,0,0,0,0,0,0,0,0,0,0,0,0,0,0,0,0,0,0,0,0,0,0,0,0,0,0,0,0,0,0,0,0,0,0,0,0,0,0,0,0,0,0,0,0,0,-0.7818,-0.7819,0,-0.7865,-0.7865,-0.7866,-0.786,-0.7859,-0.7858,-0.7858,-0.7907,-0.7909,-0.7911,0,0,0,0,0,0,0,0,0,0,0,0,0,-0.7727,-0.7729,-0.7818,-0.7819,-0.782,-0.7865,-0.7865,-0.7866,-0.786,-0.7859,-0.7858,-0.7857,-0.7906,-0.7908,-0.7911,0,0,0,0,0,0,0,0,0,0,0,0,0,-0.777,-0.7729,-0.7818,-0.7822,-0.7823,-0.7865,-0.7865,-0.7866,-0.786,-0.7859,-0.7858,-0.7857,-0.7905,-0.7908,-0.7911,-0.7953,0,0,-0.792,-0.7922,0,0,0,0,0,0,0,0,-0.7767,-0.7773,-0.7821,-0.7822,-0.7823,-0.7855,-0.7851,-0.7895,-0.7861,-0.7846,-0.7858,-0.7856,-0.7891,-0.7895,-0.7906,-0.7955,-0.7957,-0.7921,-0.7922,-0.7924,-0.7925,0,0,0,0,0,0,0,-0.7764,-0.7771,-0.7837,-0.7822,-0.7823,-0.7822,-0.7827,-0.7859,-0.7874,-0.7847,-0.7847,-0.7853,-0.7891,-0.7903,-0.7907,-0.7958,-0.7921,-0.7923,-0.7925,-0.7926,-0.8045,-0.8046,0,0,0,0,0,0,-0.776,-0.7768,-0.7835,-0.7838,-0.7792,-0.7825,-0.783,-0.7846,-0.7874,-0.7877,-0.7853,-0.7852,-0.7899,-0.7904,-0.7909,-0.7961,-0.7924,-0.7927,-0.7928,-0.8043,-0.8045,-0.8046,0,0,0,0,0,0,-0.7758,-0.7766,-0.7833,-0.7803,-0.7812,-0.7828,-0.7846,-0.7848,-0.786,-0.7878,-0.7881,-0.7863,-0.7898,-0.7905,-0.7942,-0.7962,-0.7928,-0.7931,-0.8042,-0.8044,-0.8046,-0.8063,0,0,0,0,0,0,-0.7755,-0.7765,-0.7781,-0.7804,-0.7813,-0.7865,-0.7847,-0.7849,-0.7865,-0.7864,-0.7888,-0.7891,-0.7898,-0.7938,-0.7945,-0.7966,-0.7933,-0.804,-0.8043,-0.8045,-0.8061,-0.8066,-0.807,0,0,0,0,0,-0.7752,-0.7784,-0.7781,-0.779,-0.7833,-0.7866,-0.7872,-0.7878,-0.7866,-0.7883,-0.7895,-0.789,-0.7958,-0.7942,-0.795,-0.7972,-0.8039,-0.8042,-0.8045,-0.8059,-0.8065,-0.807,0,0,0,0,0,0,-0.7763,-0.7787,-0.7785,-0.7824,-0.7843,-0.7865,-0.7886,-0.7884,-0.7907,-0.7905,-0.7912,-0.7918,-0.7956,-0.7967,-0.7948,-0.8014,-0.7997,-0.8002,-0.8005,-0.8011,-0.8015,-0.8012,-0.7936,0,0,0,0,0,-0.777,-0.7795,-0.7814,-0.7847,-0.7857,-0.787,-0.7885,-0.7888,-0.7908,-0.7916,-0.7931,-0.7951,-0.7978,-0.7995,-0.8019,-0.8062,-0.8069,-0.8082,-0.8086,-0.8089,-0.8094,-0.8119,-0.8126,-0.8056,-0.8056,-0.8056,0,0,-0.7785,-0.7801,-0.7816,-0.785,-0.7865,-0.7892,-0.7877,-0.7905,-0.7925,-0.7921,-0.7957,-0.7969,-0.7992,-0.8033,-0.8052,-0.8044,-0.8114,-0.8093,-0.8096,-0.8099,-0.8123,-0.8129,-0.8135,-0.8058,-0.8058,-0.8058,0,0,-0.7825,-0.7839,-0.7869,-0.7885,-0.7908,-0.7916,-0.7923,-0.7946,-0.7954,-0.799,-0.7988,-0.8012,-0.8057,-0.8074,-0.8088,-0.8136,-0.8134,-0.8144,-0.8167,-0.8192,-0.8197,-0.8202,-0.8221,-0.8227,-0.8148,-0.8149,-0.8149,0,-0.7841,-0.788,-0.7885,-0.7914,-0.7929,-0.7927,-0.7958,-0.7973,-0.8003,-0.8014,-0.8005,-0.8062,-0.8077,-0.8122,-0.8134,-0.8146,-0.8155,-0.8142,-0.8196,-0.8201,-0.8205,-0.8223,-0.823,-0.815,-0.815,-0.8149,-0.8149,0,-0.7899,-0.7926,-0.7947,-0.7977,-0.7995,-0.8024,-0.8035,-0.8053,-0.8054,-0.8064,-0.8102,-0.8121,-0.815,-0.8161,-0.8163,-0.8207,-0.8202,-0.8194,-0.8177,-0.8213,-0.823,-0.8237,-0.8151,-0.8151,-0.8151,-0.815,0,0,-0.7947,-0.7979,-0.7987,-0.8001,-0.8027,-0.8049,-0.8079,-0.8107,-0.8123,-0.8144,-0.8171,-0.8209,-0.8202,-0.8218,-0.8222,-0.8244,-0.8282,-0.8233,-0.8234,-0.8243,-0.8334,-0.8341,-0.8349,-0.828,-0.8282,-0.8283,-0.8333,0,-0.7991,-0.8044,-0.805,-0.8098,-0.8124,-0.8122,-0.8149,-0.8168,-0.8178,-0.8202,-0.8213,-0.8241,-0.8229,-0.8239,-0.826,-0.8273,-0.8301,-0.8269,-0.8306,-0.8308,-0.8302,-0.8357,-0.8364,-0.841,-0.8339,-0.834,-0.8341,0,-0.805,-0.8073,-0.8123,-0.8146,-0.8157,-0.8181,-0.8208,-0.8231,-0.8253,-0.8259,-0.8278,-0.8279,-0.8312,-0.8293,-0.8339,-0.8317,-0.8333,-0.8342,-0.8344,-0.8348,-0.8327,-0.8365,-0.8425,-0.8433,-0.8351,-0.8351,-0.835,0,-0.8082,-0.8126,-0.8162,-0.8173,-0.8201,-0.8218,-0.823,-0.8251,-0.8268,-0.8292,-0.8304,-0.8331,-0.8347,-0.8368,-0.8378,-0.8363,-0.8423,-0.8405,-0.843,-0.843,-0.8444,-0.8443,-0.8509,-0.8451,-0.8451,-0.8451,-0.8451,0,-0.8132,-0.8163,-0.8177,-0.8199,-0.8234,-0.8241,-0.8276,-0.8288,-0.8307,-0.8332,-0.8332,-0.8356,-0.8366,-0.8392,-0.8399,-0.8437,-0.8443,-0.845,-0.8452,-0.8451,-0.845,-0.8462,-0.8459,-0.8453,-0.8453,-0.8452,-0.8452,0,-0.8174,-0.8185,-0.8224,-0.8247,-0.8254,-0.8279,-0.8299,-0.8321,-0.8331,-0.8363,-0.8371,-0.8387,-0.8417,-0.8428,-0.8465,-0.847,-0.8514,-0.8513,-0.8507,-0.8508,-0.8533,-0.8531,-0.8609,-0.8621,-0.8555,-0.8555,-0.8556,0,-0.8206,-0.823,-0.8255,-0.8272,-0.8285,-0.8312,-0.833,-0.8338,-0.8356,-0.8384,-0.8403,-0.8433,-0.8458,-0.8507,-0.8522,-0.8551,-0.8551,-0.8577,-0.8556,-0.8554,-0.8553,-0.8552,-0.8555,-0.8581,-0.8582,-0.8582,-0.8583,0,-0.8261,-0.8265,-0.829,-0.8318,-0.8338,-0.836,-0.8381,-0.8395,-0.8407,-0.8428,-0.8459,-0.8478,-0.8516,-0.8547,-0.8576,-0.859,-0.8589,-0.8589,-0.8597,-0.8597,-0.8593,-0.8597,-0.8519,-0.8588,-0.8587,-0.8587,-0.8586,-0.8586,-0.83,-0.8322,-0.8344,-0.8372,-0.8389,-0.8409,-0.8431,-0.8444,-0.847,-0.8501,-0.8504,-0.8538,-0.8561,-0.8601,-0.8616,-0.8643,-0.8636,-0.8647,-0.865,-0.8653,-0.8655,-0.8587,-0.8648,-0.8648,-0.8648,-0.8648,-0.8648,0,-0.8357,-0.8371,-0.8397,-0.8427,-0.8449,-0.8445,-0.8469,-0.8488,-0.8518,-0.8539,-0.8563,-0.86,-0.863,-0.8647,-0.8678,-0.8696,-0.8697,-0.8704,-0.8703,-0.8707,-0.8659,-0.865,-0.8703,-0.8703,-0.8703,-0.8703,-0.8703,-0.8703,-0.8389,-0.8426,-0.8433,-0.8479,-0.8493,-0.8526,-0.854,-0.8559,-0.8576,-0.8616,-0.8641,-0.8652,-0.8672,-0.8704,-0.8732,-0.8736,-0.8748,-0.8757,-0.8761,-0.8716,-0.871,-0.8705,-0.8696,-0.8759,-0.8759,-0.8807,-0.8807,-0.8808]},{"header":{"parameterUnit":"m.s-1","parameterCategory":1,"la1":30.2991,"la2":30.254,"lo1":-89.0895,"lo2":-89.0444,"dy":0.0017,"dx":0.0017,"nx":28,"ny":28,"refTime":"2025-09-15T09:00:00:Z","depth":0,"parameterNumber":3,"parameterNumberName":"V-component_of_WINDS"},"data":[0,0,0,0,0,0,0,0,0,0,0,0,0,0,0,0,0,0,0,0,0,0,0,0,0,0,0,0,0,0,0,0,0,0,0,0,0,0,0,0,0,0,0,0,0,0,0,0,0,0,0,0,0,0,0,0,0,0,4.0304,4.0303,0,4.0285,4.0285,4.0285,4.0222,4.022,4.0219,4.0218,4.0199,4.02,4.0201,0,0,0,0,0,0,0,0,0,0,0,0,0,4.0285,4.0285,4.0304,4.0303,4.0303,4.0285,4.0285,4.0285,4.0222,4.022,4.0219,4.0217,4.0199,4.02,4.0201,0,0,0,0,0,0,0,0,0,0,0,0,0,4.0282,4.0286,4.0304,4.027,4.0266,4.0285,4.0285,4.0285,4.0222,4.022,4.0218,4.0216,4.0199,4.02,4.0201,4.0251,0,0,4.0205,4.0205,0,0,0,0,0,0,0,0,4.0283,4.0283,4.0275,4.0272,4.0268,4.0253,4.0271,4.0273,4.0223,4.0239,4.0217,4.0215,4.0219,4.0218,4.022,4.025,4.025,4.0205,4.0206,4.0206,4.0207,0,0,0,0,0,0,0,4.0283,4.0284,4.0296,4.0275,4.0271,4.0255,4.0253,4.0272,4.0241,4.0238,4.0233,4.0232,4.0217,4.0219,4.0219,4.0249,4.0205,4.0206,4.0207,4.0207,4.0319,4.0321,0,0,0,0,0,0,4.0288,4.0284,4.0297,4.0296,4.027,4.0258,4.0254,4.026,4.0241,4.0236,4.0233,4.0229,4.0218,4.0217,4.0218,4.0273,4.0206,4.0207,4.0208,4.0316,4.0319,4.0321,0,0,0,0,0,0,4.0288,4.029,4.0298,4.0289,4.0288,4.026,4.0267,4.0261,4.0263,4.0238,4.0232,4.0241,4.0216,4.0216,4.0243,4.0272,4.0208,4.0209,4.0314,4.0317,4.032,4.0386,0,0,0,0,0,0,4.0287,4.029,4.0309,4.029,4.0289,4.0323,4.0269,4.0262,4.0265,4.0259,4.0243,4.0238,4.0214,4.0241,4.0244,4.0272,4.021,4.0311,4.0315,4.0319,4.0381,4.0391,4.04,0,0,0,0,0,4.0287,4.0328,4.031,4.0312,4.0312,4.0325,4.0325,4.0296,4.0268,4.0286,4.027,4.0239,4.0269,4.0245,4.0247,4.0276,4.0309,4.0314,4.0319,4.0377,4.0389,4.04,0,0,0,0,0,0,4.0352,4.0325,4.0304,4.0341,4.0336,4.0314,4.0336,4.031,4.0313,4.0307,4.0271,4.0268,4.03,4.0291,4.0265,4.0323,4.0284,4.0289,4.0327,4.0338,4.0348,4.0348,4.0211,0,0,0,0,0,4.0371,4.0383,4.0359,4.0394,4.0392,4.0365,4.037,4.0348,4.0341,4.0338,4.0324,4.0319,4.0326,4.0333,4.0339,4.0381,4.0375,4.0402,4.0411,4.0419,4.0424,4.0443,4.0454,4.0338,4.0338,4.0338,0,0,4.0409,4.0396,4.0406,4.0407,4.04,4.0413,4.0364,4.038,4.0389,4.0341,4.0364,4.0354,4.0346,4.038,4.0394,4.0374,4.0455,4.0425,4.0432,4.0432,4.0449,4.046,4.047,4.0341,4.034,4.034,0,0,4.0485,4.0478,4.0504,4.0498,4.0489,4.047,4.0477,4.046,4.0451,4.0474,4.0437,4.0448,4.0464,4.0458,4.0458,4.0532,4.0503,4.0535,4.0583,4.0603,4.0612,4.062,4.0644,4.0653,4.0541,4.0541,4.0541,0,4.0534,4.0552,4.0522,4.054,4.054,4.0498,4.0524,4.052,4.0513,4.0515,4.0492,4.0509,4.0501,4.0532,4.055,4.0552,4.0557,4.0536,4.0613,4.0621,4.0627,4.065,4.066,4.0545,4.0544,4.0544,4.0543,0,4.0611,4.0625,4.0648,4.0641,4.0645,4.0668,4.064,4.0648,4.0626,4.061,4.0634,4.0622,4.0624,4.0631,4.0611,4.0659,4.0646,4.0619,4.0578,4.0643,4.0663,4.0672,4.055,4.0549,4.0547,4.0547,0,0,4.0726,4.0702,4.0711,4.0707,4.0693,4.0703,4.0724,4.0725,4.0731,4.0729,4.0744,4.0758,4.0732,4.0732,4.071,4.0728,4.0785,4.0698,4.0697,4.0712,4.0835,4.0853,4.0864,4.0767,4.0768,4.0769,4.0835,0,4.0796,4.0829,4.0802,4.0839,4.0851,4.081,4.0828,4.0821,4.0808,4.0815,4.08,4.0809,4.0776,4.0775,4.0791,4.0774,4.0808,4.077,4.0779,4.078,4.0779,4.0875,4.0895,4.0957,4.0843,4.0844,4.0845,0,4.0882,4.0881,4.092,4.0903,4.0906,4.0923,4.0921,4.093,4.0921,4.091,4.0909,4.0883,4.0901,4.0864,4.0888,4.0862,4.0865,4.0858,4.0859,4.0857,4.0814,4.0873,4.0976,4.0985,4.0858,4.0857,4.0856,0,4.0958,4.0968,4.0992,4.099,4.0971,4.0983,4.0976,4.0965,4.0968,4.0967,4.0968,4.0971,4.0971,4.0973,4.0948,4.0923,4.0975,4.0935,4.0964,4.0965,4.0975,4.0974,4.1078,4.0982,4.0981,4.0981,4.0981,0,4.1037,4.1062,4.1025,4.104,4.1066,4.1035,4.1062,4.1051,4.1042,4.1053,4.102,4.1031,4.0998,4.1006,4.0987,4.1008,4.101,4.1,4.0994,4.1001,4.1002,4.1001,4.0995,4.0984,4.0983,4.0983,4.0982,0,4.1126,4.1103,4.1125,4.1106,4.1101,4.1121,4.1104,4.1116,4.1101,4.1115,4.1117,4.1092,4.1099,4.1075,4.1079,4.1066,4.1097,4.1086,4.1099,4.1095,4.1124,4.1121,4.1228,4.124,4.1139,4.114,4.1141,0,4.1176,4.1194,4.1176,4.1181,4.1175,4.1184,4.1186,4.1157,4.116,4.1152,4.1165,4.117,4.1171,4.1185,4.1167,4.117,4.1156,4.1194,4.1156,4.1162,4.1153,4.1152,4.1152,4.1201,4.1202,4.1203,4.1204,0,4.1268,4.1255,4.1259,4.1259,4.1263,4.1262,4.1258,4.1264,4.1233,4.1239,4.1245,4.1247,4.125,4.1255,4.1253,4.1246,4.1219,4.1216,4.1222,4.1228,4.1235,4.1229,4.1118,4.1213,4.1212,4.1211,4.1211,4.1211,4.1337,4.135,4.1339,4.1344,4.1339,4.1336,4.1346,4.1331,4.1336,4.1336,4.1319,4.1329,4.132,4.1315,4.131,4.1318,4.13,4.131,4.1312,4.1314,4.1318,4.1236,4.1318,4.1317,4.1317,4.1317,4.1317,0,4.1424,4.1415,4.1421,4.1416,4.142,4.1396,4.1391,4.1395,4.1404,4.1398,4.14,4.1408,4.1412,4.1395,4.1396,4.1405,4.1393,4.1406,4.1404,4.1402,4.1335,4.1328,4.1416,4.1416,4.1416,4.1416,4.1416,4.1416,4.147,4.149,4.1476,4.1493,4.1484,4.1493,4.1492,4.1489,4.1483,4.1493,4.1496,4.1485,4.1474,4.1474,4.1477,4.1471,4.1472,4.1489,4.148,4.1417,4.1407,4.1398,4.1391,4.1491,4.1491,4.1546,4.1547,4.1547]}]]